ELECTRON KICK STAGE R/B (47347 NORAD) Tracking and Keplerian Element Data

This shows tracking and keplerian element data for the satellite.

Feedback or suggestion? Click here.




ElementValue
Catalog47347
NameELECTRON KICK STAGE R/B
Epoch Orbit413
Epoch Day49.49780438
Epoch Year2021
RAAN229.7824
Inclination89.9876
Eccentricity0.0524502
Argument of Perigee212.3878
Mean Anonmoly144.4109
Mean Motion14.16971427
Decay Rate3.5E-06
L11 47347U 21004B 21049.49780438 .00000350 00000-0 41268-4 0 9994
L22 47347 89.9876 229.7824 0524502 212.3878 144.4109 14.16971427 4130

Live tracking and technical data element details for ELECTRON KICK STAGE R/B (NORAD 47347). ELECTRON KICK STAGE R/B can be tracked NOW for your location showing map with azimuth and elevation plus other details from your city location.

Track the satellite on the map from your city or location and see movement details for azimuth, elevation, latitude, longitude, range, height, and movement on the map or in text.







IsCatalogInMostPopularTable: catalog: 47347, numindb: 20
Update: records affected: 1



GetName: 47347 ELECTRON KICK STAGE R/B

Hit Count: updated at: Tue, 13 Apr 2021 03:40:13 GMT